Regional Weather Roundup
Issued by NWS

Home | Current Version | Previous Version | Graphics & Text | Print | Product List | Glossary On
Versions: 1 2 3 4 5 6 7 8 9 10 11 12 13 14 15 16 17 18 19 20 21 22 23 24 25 26 27 28 29 30 31 32 33 34 35 36 37 38 39 40 41 42 43 44 45 46 47 48 49 50
000
ASUS45 KBOU 202207
RWRCO

WEATHER ROUNDUP FOR COLORADO
NATIONAL WEATHER SERVICE DENVER/BOULDER CO
400 PM MDT SAT SEP 20 2014

NOTE: "FAIR" INDICATES FEW OR NO CLOUDS BELOW 12000 FEET WITH NO
SIGNIFICANT WEATHER AND/OR OBSTRUCTIONS TO VISIBILITY.

COZ001>005-013-030-031-202300-
...NORTHWEST COLORADO...

CITY           SKY/WX    TMP DP  RH WIND       PRES   REMARKS
CRAIG          SUNNY     81  31  16 VRB3      30.24F
HAYDEN         SUNNY     79  27  14 W7        30.26F
MEEKER         NOT AVBL
MOUNT WERNER   NOT AVBL
STEAMBOAT SPGS SUNNY     78  26  15 W3        30.28F
WALDEN         SUNNY     73  27  17 CALM      30.38S
$$

COZ006>008-011-202300-
...WEST CENTRAL VALLEYS...

CITY           SKY/WX    TMP DP  RH WIND       PRES   REMARKS
GRAND JUNCTION SUNNY     90  42  18 W10       30.05F
MONTROSE       MOSUNNY   84  43  23 NW8       30.14F
EAGLE          MOSUNNY   82  32  16 N3        30.22F
RIFLE          SUNNY     87  27  11 CALM      30.12F
DELTA          MOSUNNY   93  38  14 S9        30.07F
NUCLA          MOSUNNY   81  37  21 SE21G30   30.17S
$$

COZ017>023-064>068-202300-
...SOUTHWEST COLORADO...

CITY           SKY/WX    TMP DP  RH WIND       PRES   REMARKS
DURANGO        MOSUNNY   84  35  17 W8        30.17F
CORTEZ         MOSUNNY   88  44  21 W10       30.11F
PAGOSA SPRINGS MOSUNNY   83  25  11 E3        30.26F
TELLURIDE      NOT AVBL
WOLF CREEK PAS PTSUNNY   57  32  38 W5        30.61F
$$

COZ009-010-012-014-032>034-037-058>063-202300-
...CENTRAL COLORADO...

CITY           SKY/WX    TMP DP  RH WIND       PRES   REMARKS
ASPEN          MOSUNNY   79  36  21 NW9G17    30.28F
BUENA VISTA    PTSUNNY   76  31  19 SW7       30.31S
COPPER MTN     MOSUNNY   61  32  33 N3        30.66F
BERTHOUD PASS  FAIR      52  50  93 E5G20     30.72F
COTTONWOOD PAS PTSUNNY   68  27  21 SW14G20   30.48S
GUNNISON       MOSUNNY   79  34  19 CALM      30.29S
KREMMLING      SUNNY     79  23  12 NW3       30.31F
LEADVILLE      MOSUNNY   67  30  25 NW8       30.45F
MONARCH PASS   PTSUNNY   55  34  44 E5        30.74S
SALIDA         PTSUNNY   79  35  19 SE14G22   30.34F
SUNLIGHT       SUNNY     64  32  29 NW6       30.57F
WILKERSON PASS NOT AVBL
$$

COZ069>075-202300-
...SAN LUIS VALLEY/SANGRE DE CRISTO MOUNTAINS...

CITY           SKY/WX    TMP DP  RH WIND       PRES   REMARKS
ALAMOSA        MOSUNNY   80  34  19 VRB3      30.26F
LA VETA PASS   SUNNY     64  41  42 NE20G28   30.52S
SAGUACHE       NOT AVBL
$$

COZ035-036-038>040-202300-
...NORTHERN COLORADO FRONT RANGE...

CITY           SKY/WX    TMP DP  RH WIND       PRES   REMARKS
DENVER INTL AP MOSUNNY   79  45  29 E8        30.23F
DMNS CITY PARK   N/A     80  46  29 NE7G14    30.23R
AURORA         MOSUNNY   79  46  30 NE8       30.25S
FRONT RANGE AP NOT AVBL
ERIE MUNI ARPT SUNNY     80  43  26 CALM      30.21F
BOULDER MUN AP SUNNY     77  46  33 CALM      30.22F
CENTENNIAL     MOSUNNY   78  46  32 N12G20    30.25S
BROOMFIELD     MOSUNNY   81  45  28 N8        30.26S
FORT COLLINS   SUNNY     79  48  34 NE6       30.21F
LONGMONT       SUNNY     83  46  27 SE3       30.24S
$$

COZ041-046-047-076>085-087-088-202300-
...PIKES PEAK/PALMER DIVIDE AND SOUTHERN FOOTHILLS...

CITY           SKY/WX    TMP DP  RH WIND       PRES   REMARKS
COLO. SPRINGS  PTSUNNY   81  44  27 VRB3      30.25F
A. F. ACADEMY  MOSUNNY   78  45  30 SE9       30.27S
ELLICOTT       NOT AVBL
FALCON         CLOUDY    77  43  28 E10       30.32S
FORT CARSON    CLOUDY    84  46  26 E16G22    30.22S
LIMON          SUNNY     79  48  33 NE8G16    30.23S
MONUMENT HILL  SUNNY     72  43  35 NE12      30.32S
TRINIDAD       SUNNY     84  43  23 E9        30.21F
$$

COZ042>045-048>051-090-091-202300-
...NORTHEAST COLORADO...

CITY           SKY/WX    TMP DP  RH WIND       PRES   REMARKS
GREELEY ARPT   SUNNY     81  48  32 SE7       30.21S
AKRON          SUNNY     80  47  31 N5        30.20S
BURLINGTON     SUNNY     83  49  30 E13G22    30.15F
WRAY           SUNNY     85  46  25 N8        30.14S
STERLING       SUNNY     82  54  36 E3        30.15F
HOLYOKE        SUNNY     81  46  30 N9        30.15S
FORT MORGAN    SUNNY     79  49  34 E7        30.21S
$$

COZ086-089-092>099-202300-
...SOUTHEAST COLORADO...

CITY           SKY/WX    TMP DP  RH WIND       PRES   REMARKS
PUEBLO         SUNNY     89  45  21 E13G25    30.13S
LA JUNTA       SUNNY     89  49  25 E12G23    30.12S
LAMAR          SUNNY     90  51  26 NE14G22   30.06S
SPRINGFIELD      N/A     88  51  28 NE13      30.10S
$$


USA.gov is the U.S. government's official web portal to all federal, state and local government web resources and services.